Time,TemperatureF,DewpointF,PressureIn,WindDirection,WindDirectionDegrees,WindSpeedMPH,WindSpeedGustMPH,Humidity,HourlyPrecipIn,Conditions,Clouds,dailyrainin,SoftwareType,DateUTC
2013-04-28 00:00:00,43.1,36.7,30.42,South,180,0.0,0.0,78,0.00,,OVC033,0.00,VWS V14.01,2013-04-28 04:00:00,
2013-04-28 00:10:00,42.6,36.5,30.42,South,180,0.0,0.0,79,0.00,,OVC033,0.00,VWS V14.01,2013-04-28 04:10:00,
2013-04-28 00:20:00,42.2,36.8,30.42,South,180,0.0,0.0,81,0.00,,OVC033,0.00,VWS V14.01,2013-04-28 04:20:00,
2013-04-28 00:30:00,41.9,36.5,30.42,South,180,0.0,0.0,81,0.00,,OVC033,0.00,VWS V14.01,2013-04-28 04:30:00,
2013-04-28 00:40:00,41.6,36.2,30.42,South,180,0.0,0.0,81,0.00,,OVC033,0.00,VWS V14.01,2013-04-28 04:40:00,
2013-04-28 00:50:00,41.2,36.1,30.41,South,180,0.0,0.0,82,0.00,,OVC033,0.00,VWS V14.01,2013-04-28 04:50:00,
2013-04-28 01:00:00,40.9,36.5,30.41,South,180,0.0,0.0,84,0.00,,OVC033,0.00,VWS V14.01,2013-04-28 05:00:00,
2013-04-28 01:10:00,40.6,36.5,30.41,South,180,0.0,0.0,85,0.00,,OVC033,0.00,VWS V14.01,2013-04-28 05:10:00,
2013-04-28 01:20:00,40.4,36.3,30.42,South,180,0.0,0.0,85,0.00,,OVC033,0.00,VWS V14.01,2013-04-28 05:20:00,
2013-04-28 01:30:00,40.1,36.3,30.41,South,180,0.0,0.0,86,0.00,,OVC033,0.00,VWS V14.01,2013-04-28 05:30:00,
2013-04-28 01:40:00,39.9,36.1,30.41,South,180,0.0,0.0,86,0.00,,OVC033,0.00,VWS V14.01,2013-04-28 05:40:00,
2013-04-28 01:50:00,39.6,35.8,30.41,South,180,0.0,0.0,86,0.00,,OVC033,0.00,VWS V14.01,2013-04-28 05:50:00,
2013-04-28 02:00:00,39.2,35.4,30.40,South,180,0.0,0.0,86,0.00,,OVC033,0.00,VWS V14.01,2013-04-28 06:00:00,
2013-04-28 02:10:00,39.1,35.8,30.40,South,180,0.0,0.0,88,0.00,,OVC033,0.00,VWS V14.01,2013-04-28 06:10:00,
2013-04-28 02:20:00,38.8,35.6,30.40,South,180,0.0,0.0,88,0.00,,OVC033,0.00,VWS V14.01,2013-04-28 06:20:00,
2013-04-28 02:30:00,38.6,35.4,30.40,South,180,0.0,0.0,88,0.00,,OVC033,0.00,VWS V14.01,2013-04-28 06:30:00,
2013-04-28 02:40:00,38.3,35.1,30.40,South,180,0.0,0.0,88,0.00,,OVC033,0.00,VWS V14.01,2013-04-28 06:40:00,
2013-04-28 02:50:00,38.0,34.8,30.39,South,180,0.0,0.0,88,0.00,,OVC033,0.00,VWS V14.01,2013-04-28 06:50:00,
2013-04-28 03:00:00,37.9,35.0,30.39,South,180,0.0,0.0,89,0.00,,OVC033,0.00,VWS V14.01,2013-04-28 07:00:00,
2013-04-28 03:10:00,37.8,34.9,30.39,South,180,0.0,0.0,89,0.00,,OVC033,0.00,VWS V14.01,2013-04-28 07:10:00,
2013-04-28 03:20:00,37.8,35.1,30.39,South,180,0.0,0.0,90,0.00,,OVC033,0.00,VWS V14.01,2013-04-28 07:20:00,
2013-04-28 03:30:00,37.6,34.9,30.39,South,180,0.0,0.0,90,0.00,,OVC033,0.00,VWS V14.01,2013-04-28 07:30:00,
2013-04-28 03:40:00,37.5,34.8,30.39,South,180,0.0,0.0,90,0.00,,OVC033,0.00,VWS V14.01,2013-04-28 07:40:00,
2013-04-28 03:50:00,37.3,34.6,30.38,South,180,0.0,0.0,90,0.00,,OVC033,0.00,VWS V14.01,2013-04-28 07:50:00,
2013-04-28 04:00:00,37.1,34.4,30.39,South,180,0.0,0.0,90,0.00,,OVC033,0.00,VWS V14.01,2013-04-28 08:00:00,
2013-04-28 04:10:00,36.8,34.2,30.39,South,180,0.0,0.0,90,0.00,,OVC033,0.00,VWS V14.01,2013-04-28 08:10:00,
2013-04-28 04:20:00,36.6,34.2,30.38,South,180,0.0,0.0,91,0.00,,OVC033,0.00,VWS V14.01,2013-04-28 08:20:00,
2013-04-28 04:30:00,36.5,34.1,30.38,South,180,0.0,0.0,91,0.00,,OVC033,0.00,VWS V14.01,2013-04-28 08:30:00,
2013-04-28 04:40:00,36.4,34.0,30.38,South,180,0.0,0.0,91,0.00,,OVC033,0.00,VWS V14.01,2013-04-28 08:40:00,
2013-04-28 04:50:00,36.2,33.8,30.38,South,180,0.0,0.0,91,0.00,,OVC033,0.00,VWS V14.01,2013-04-28 08:50:00,
2013-04-28 05:00:00,36.0,33.6,30.38,South,180,0.0,0.0,91,0.00,,OVC033,0.00,VWS V14.01,2013-04-28 09:00:00,
2013-04-28 05:10:00,35.8,33.4,30.38,South,180,0.0,0.0,91,0.00,,OVC033,0.00,VWS V14.01,2013-04-28 09:10:00,
2013-04-28 05:20:00,35.6,33.5,30.38,South,180,0.0,0.0,92,0.00,,OVC033,0.00,VWS V14.01,2013-04-28 09:20:00,
2013-04-28 05:30:00,35.5,33.4,30.38,South,180,0.0,0.0,92,0.00,,OVC033,0.00,VWS V14.01,2013-04-28 09:30:00,
2013-04-28 05:40:00,35.5,33.4,30.38,South,180,0.0,0.0,92,0.00,,OVC033,0.00,VWS V14.01,2013-04-28 09:40:00,
2013-04-28 05:50:00,35.4,33.3,30.37,South,180,0.0,0.0,92,0.00,,OVC033,0.00,VWS V14.01,2013-04-28 09:50:00,
2013-04-28 06:00:00,35.4,33.3,30.38,South,180,0.0,0.0,92,0.00,,OVC033,0.00,VWS V14.01,2013-04-28 10:00:00,
2013-04-28 06:10:00,35.5,33.7,30.38,South,180,0.0,0.0,93,0.00,,OVC033,0.00,VWS V14.01,2013-04-28 10:10:00,
2013-04-28 06:20:00,35.5,33.7,30.39,South,180,0.0,0.0,93,0.00,,OVC033,0.00,VWS V14.01,2013-04-28 10:20:00,
2013-04-28 06:30:00,35.9,34.1,30.39,South,180,0.0,0.0,93,0.00,,OVC033,0.00,VWS V14.01,2013-04-28 10:30:00,
2013-04-28 06:40:00,36.2,34.4,30.39,South,180,0.0,0.0,93,0.00,,OVC033,0.00,VWS V14.01,2013-04-28 10:40:00,
2013-04-28 06:50:00,36.8,35.2,30.39,South,180,0.0,0.0,94,0.00,,OVC033,0.00,VWS V14.01,2013-04-28 10:50:00,
2013-04-28 07:00:00,37.9,36.3,30.39,South,180,0.0,0.0,94,0.00,,OVC033,0.00,VWS V14.01,2013-04-28 11:00:00,
2013-04-28 07:10:00,39.3,37.7,30.40,South,180,0.0,0.0,94,0.00,,OVC033,0.00,VWS V14.01,2013-04-28 11:10:00,
2013-04-28 07:20:00,41.0,39.4,30.40,South,180,0.0,0.0,94,0.00,,OVC033,0.00,VWS V14.01,2013-04-28 11:20:00,
2013-04-28 07:30:00,42.3,40.7,30.41,South,180,0.0,1.0,94,0.00,,OVC033,0.00,VWS V14.01,2013-04-28 11:30:00,
2013-04-28 07:40:00,43.7,41.5,30.41,South,180,0.0,1.0,92,0.00,,OVC033,0.00,VWS V14.01,2013-04-28 11:40:00,
2013-04-28 07:50:00,45.7,42.9,30.41,South,180,0.0,2.0,90,0.00,,OVC033,0.00,VWS V14.01,2013-04-28 11:50:00,
2013-04-28 08:00:00,47.2,43.2,30.41,SSW,202,0.0,2.0,86,0.00,,OVC033,0.00,VWS V14.01,2013-04-28 12:00:00,
2013-04-28 08:10:00,48.7,43.5,30.41,SSW,202,0.0,2.0,82,0.00,,OVC033,0.00,VWS V14.01,2013-04-28 12:10:00,
2013-04-28 08:20:00,50.0,43.4,30.42,SW,225,0.0,2.0,78,0.00,,OVC033,0.00,VWS V14.01,2013-04-28 12:20:00,
2013-04-28 08:30:00,51.8,43.8,30.42,SW,225,0.0,2.0,74,0.00,,OVC033,0.00,VWS V14.01,2013-04-28 12:30:00,
2013-04-28 08:40:00,53.3,43.8,30.42,SW,225,0.0,1.0,70,0.00,,OVC033,0.00,VWS V14.01,2013-04-28 12:40:00,
2013-04-28 08:50:00,54.9,39.0,30.42,SW,225,0.0,2.0,55,0.00,,OVC033,0.00,VWS V14.01,2013-04-28 12:50:00,
2013-04-28 09:00:00,56.4,36.4,30.41,South,180,2.0,9.0,47,0.00,,OVC033,0.00,VWS V14.01,2013-04-28 13:00:00,
2013-04-28 09:10:00,57.3,38.3,30.42,SSE,158,1.0,7.0,49,0.00,,OVC033,0.00,VWS V14.01,2013-04-28 13:10:00,
2013-04-28 09:20:00,58.2,36.4,30.42,SSE,158,1.0,4.0,44,0.00,,OVC033,0.00,VWS V14.01,2013-04-28 13:20:00,
2013-04-28 09:30:00,58.7,37.4,30.42,SSE,158,2.0,6.0,45,0.00,,OVC033,0.00,VWS V14.01,2013-04-28 13:30:00,
2013-04-28 09:40:00,59.4,36.9,30.41,SSE,158,3.0,8.0,43,0.00,,OVC033,0.00,VWS V14.01,2013-04-28 13:40:00,
2013-04-28 09:50:00,60.1,38.1,30.41,SSW,202,1.0,7.0,44,0.00,,OVC033,0.00,VWS V14.01,2013-04-28 13:50:00,
2013-04-28 10:00:00,61.2,39.7,30.41,SSE,158,1.0,7.0,45,0.00,,OVC033,0.00,VWS V14.01,2013-04-28 14:00:00,
2013-04-28 10:10:00,62.0,37.4,30.41,ESE,112,2.0,7.0,40,0.00,,OVC033,0.00,VWS V14.01,2013-04-28 14:10:00,
2013-04-28 10:20:00,61.5,37.0,30.41,South,180,2.0,7.0,40,0.00,,OVC033,0.00,VWS V14.01,2013-04-28 14:20:00,
2013-04-28 10:30:00,62.5,39.1,30.41,SSE,158,1.0,6.0,42,0.00,,OVC033,0.00,VWS V14.01,2013-04-28 14:30:00,
2013-04-28 10:40:00,63.1,37.8,30.41,SE,135,2.0,9.0,39,0.00,,OVC033,0.00,VWS V14.01,2013-04-28 14:40:00,
2013-04-28 10:50:00,63.0,39.6,30.41,South,180,3.0,8.0,42,0.00,,OVC033,0.00,VWS V14.01,2013-04-28 14:50:00,
2013-04-28 11:00:00,63.0,37.7,30.40,SSW,202,2.0,8.0,39,0.00,,OVC033,0.00,VWS V14.01,2013-04-28 15:00:00,
2013-04-28 11:10:00,63.2,39.1,30.40,SSW,202,3.0,10.0,41,0.00,,OVC033,0.00,VWS V14.01,2013-04-28 15:10:00,
2013-04-28 11:20:00,63.6,38.2,30.40,SE,135,3.0,9.0,39,0.00,,OVC033,0.00,VWS V14.01,2013-04-28 15:20:00,
2013-04-28 11:30:00,64.1,40.6,30.39,South,180,3.0,9.0,42,0.00,,OVC033,0.00,VWS V14.01,2013-04-28 15:30:00,
2013-04-28 11:40:00,64.4,37.6,30.39,SE,135,3.0,8.0,37,0.00,,OVC033,0.00,VWS V14.01,2013-04-28 15:40:00,
2013-04-28 11:50:00,64.0,35.8,30.39,SE,135,4.0,11.0,35,0.00,,OVC033,0.00,VWS V14.01,2013-04-28 15:50:00,
2013-04-28 12:00:00,64.0,34.3,30.39,SSE,158,5.0,12.0,33,0.00,,OVC033,0.00,VWS V14.01,2013-04-28 16:00:00,
2013-04-28 12:10:00,64.1,33.7,30.39,SSE,158,5.0,12.0,32,0.00,,OVC033,0.00,VWS V14.01,2013-04-28 16:10:00,
2013-04-28 12:20:00,64.6,34.1,30.39,SE,135,4.0,8.0,32,0.00,,OVC033,0.00,VWS V14.01,2013-04-28 16:20:00,
2013-04-28 12:30:00,64.7,36.4,30.38,SSE,158,4.0,10.0,35,0.00,,OVC033,0.00,VWS V14.01,2013-04-28 16:30:00,
2013-04-28 12:40:00,65.0,35.2,30.38,SE,135,5.0,11.0,33,0.00,,OVC033,0.00,VWS V14.01,2013-04-28 16:40:00,
2013-04-28 12:50:00,64.6,34.1,30.37,SE,135,5.0,12.0,32,0.00,,OVC033,0.00,VWS V14.01,2013-04-28 16:50:00,
2013-04-28 13:00:00,65.0,38.8,30.37,SE,135,5.0,9.0,38,0.00,,OVC033,0.00,VWS V14.01,2013-04-28 17:00:00,
2013-04-28 13:10:00,65.3,36.2,30.37,SSE,158,4.0,10.0,34,0.00,,OVC033,0.00,VWS V14.01,2013-04-28 17:10:00,
2013-04-28 13:20:00,64.8,35.8,30.37,SSW,202,5.0,15.0,34,0.00,,OVC033,0.00,VWS V14.01,2013-04-28 17:20:00,
2013-04-28 13:30:00,64.6,34.9,30.37,South,180,4.0,12.0,33,0.00,,OVC033,0.00,VWS V14.01,2013-04-28 17:30:00,
2013-04-28 13:40:00,64.7,34.2,30.37,South,180,4.0,14.0,32,0.00,,OVC033,0.00,VWS V14.01,2013-04-28 17:40:00,
2013-04-28 13:50:00,63.9,35.0,30.37,SSE,158,6.0,14.0,34,0.00,,OVC033,0.00,VWS V14.01,2013-04-28 17:50:00,
2013-04-28 14:00:00,64.4,35.5,30.36,ESE,112,5.0,12.0,34,0.00,,OVC033,0.00,VWS V14.01,2013-04-28 18:00:00,
2013-04-28 14:10:00,64.0,35.1,30.36,SE,135,6.0,13.0,34,0.00,,OVC033,0.00,VWS V14.01,2013-04-28 18:10:00,
2013-04-28 14:20:00,63.9,35.0,30.36,South,180,6.0,14.0,34,0.00,,OVC033,0.00,VWS V14.01,2013-04-28 18:20:00,
2013-04-28 14:30:00,64.0,35.8,30.36,SE,135,5.0,12.0,35,0.00,,OVC033,0.00,VWS V14.01,2013-04-28 18:30:00,
2013-04-28 14:40:00,63.4,33.8,30.36,South,180,6.0,15.0,33,0.00,,OVC033,0.00,VWS V14.01,2013-04-28 18:40:00,
2013-04-28 14:50:00,63.1,34.3,30.36,SSE,158,6.0,17.0,34,0.00,,OVC033,0.00,VWS V14.01,2013-04-28 18:50:00,
2013-04-28 15:00:00,63.2,36.5,30.35,SSE,158,5.0,16.0,37,0.00,,OVC033,0.00,VWS V14.01,2013-04-28 19:00:00,
2013-04-28 15:10:00,63.6,36.2,30.35,SE,135,5.0,13.0,36,0.00,,OVC033,0.00,VWS V14.01,2013-04-28 19:10:00,
2013-04-28 15:20:00,63.7,35.6,30.34,SSE,158,5.0,12.0,35,0.00,,OVC033,0.00,VWS V14.01,2013-04-28 19:20:00,
2013-04-28 15:30:00,62.7,36.8,30.34,SE,135,7.0,16.0,38,0.00,,OVC033,0.00,VWS V14.01,2013-04-28 19:30:00,
2013-04-28 15:40:00,63.2,35.1,30.34,South,180,5.0,15.0,35,0.00,,OVC033,0.00,VWS V14.01,2013-04-28 19:40:00,
2013-04-28 15:50:00,62.2,35.6,30.34,South,180,8.0,16.0,37,0.00,,OVC033,0.00,VWS V14.01,2013-04-28 19:50:00,
2013-04-28 16:00:00,62.1,32.7,30.34,South,180,6.0,13.0,33,0.00,,OVC033,0.00,VWS V14.01,2013-04-28 20:00:00,
2013-04-28 16:10:00,61.6,33.0,30.34,South,180,7.0,15.0,34,0.00,,OVC033,0.00,VWS V14.01,2013-04-28 20:10:00,
2013-04-28 16:20:00,61.4,35.6,30.33,SE,135,7.0,16.0,38,0.00,,OVC033,0.00,VWS V14.01,2013-04-28 20:20:00,
2013-04-28 16:30:00,61.6,33.7,30.33,South,180,6.0,18.0,35,0.00,,OVC033,0.00,VWS V14.01,2013-04-28 20:30:00,
2013-04-28 16:40:00,61.6,33.7,30.33,South,180,6.0,21.0,35,0.00,,OVC033,0.00,VWS V14.01,2013-04-28 20:40:00,
2013-04-28 16:50:00,61.2,33.3,30.33,SE,135,7.0,16.0,35,0.00,,OVC033,0.00,VWS V14.01,2013-04-28 20:50:00,
2013-04-28 17:00:00,60.8,33.7,30.33,South,180,8.0,16.0,36,0.00,,OVC033,0.00,VWS V14.01,2013-04-28 21:00:00,
2013-04-28 17:10:00,60.6,33.5,30.33,South,180,7.0,15.0,36,0.00,,OVC033,0.00,VWS V14.01,2013-04-28 21:10:00,
2013-04-28 17:20:00,60.1,33.1,30.33,South,180,8.0,20.0,36,0.00,,OVC033,0.00,VWS V14.01,2013-04-28 21:20:00,
2013-04-28 17:30:00,60.2,34.5,30.33,SE,135,6.0,13.0,38,0.00,,OVC033,0.00,VWS V14.01,2013-04-28 21:30:00,
2013-04-28 17:40:00,60.1,33.8,30.33,SSE,158,5.0,14.0,37,0.00,,OVC033,0.00,VWS V14.01,2013-04-28 21:40:00,
2013-04-28 17:50:00,60.0,35.6,30.33,SSE,158,4.0,14.0,40,0.00,,OVC033,0.00,VWS V14.01,2013-04-28 21:50:00,
2013-04-28 18:00:00,59.6,34.0,30.33,SE,135,5.0,12.0,38,0.00,,OVC033,0.00,VWS V14.01,2013-04-28 22:00:00,
2013-04-28 18:10:00,59.6,34.0,30.33,SSW,202,3.0,13.0,38,0.00,,OVC033,0.00,VWS V14.01,2013-04-28 22:10:00,
2013-04-28 18:20:00,58.9,34.6,30.33,SSE,158,6.0,12.0,40,0.00,,OVC033,0.00,VWS V14.01,2013-04-28 22:20:00,
2013-04-28 18:30:00,58.4,34.8,30.33,South,180,5.0,13.0,41,0.00,,OVC033,0.00,VWS V14.01,2013-04-28 22:30:00,
2013-04-28 18:40:00,57.8,34.3,30.33,SSE,158,4.0,12.0,41,0.00,,OVC033,0.00,VWS V14.01,2013-04-28 22:40:00,
2013-04-28 18:50:00,57.3,34.4,30.33,South,180,3.0,8.0,42,0.00,,OVC033,0.00,VWS V14.01,2013-04-28 22:50:00,
2013-04-28 19:00:00,56.9,34.1,30.33,SSW,202,3.0,11.0,42,0.00,,OVC033,0.00,VWS V14.01,2013-04-28 23:00:00,
2013-04-28 19:10:00,56.4,33.6,30.33,SSE,158,3.0,11.0,42,0.00,,OVC033,0.00,VWS V14.01,2013-04-28 23:10:00,
2013-04-28 19:20:00,56.0,33.2,30.33,South,180,3.0,9.0,42,0.00,,OVC033,0.00,VWS V14.01,2013-04-28 23:20:00,
2013-04-28 19:30:00,55.7,33.0,30.33,SSE,158,3.0,11.0,42,0.00,,OVC033,0.00,VWS V14.01,2013-04-28 23:30:00,
2013-04-28 19:40:00,55.4,32.7,30.33,SSE,158,3.0,10.0,42,0.00,,OVC033,0.00,VWS V14.01,2013-04-28 23:40:00,
2013-04-28 19:50:00,54.9,33.4,30.33,South,180,2.0,8.0,44,0.00,,OVC033,0.00,VWS V14.01,2013-04-28 23:50:00,
2013-04-28 20:00:00,54.5,33.6,30.33,SSE,158,2.0,8.0,45,0.00,,OVC033,0.00,VWS V14.01,2013-04-29 00:00:00,
2013-04-28 20:10:00,54.2,33.9,30.33,SSE,158,2.0,8.0,46,0.00,,OVC033,0.00,VWS V14.01,2013-04-29 00:10:00,
2013-04-28 20:20:00,53.9,35.2,30.33,SSE,158,2.0,8.0,49,0.00,,OVC033,0.00,VWS V14.01,2013-04-29 00:20:00,
2013-04-28 20:30:00,53.7,33.4,30.33,South,180,2.0,6.0,46,0.00,,OVC033,0.00,VWS V14.01,2013-04-29 00:30:00,
2013-04-28 20:40:00,53.5,33.2,30.34,SSE,158,2.0,10.0,46,0.00,,OVC033,0.00,VWS V14.01,2013-04-29 00:40:00,
2013-04-28 20:50:00,53.0,33.8,30.34,South,180,1.0,6.0,48,0.00,,OVC033,0.00,VWS V14.01,2013-04-29 00:50:00,
2013-04-28 21:00:00,52.6,35.0,30.34,SSE,158,1.0,6.0,51,0.00,,OVC033,0.00,VWS V14.01,2013-04-29 01:00:00,
2013-04-28 21:10:00,52.3,35.7,30.34,South,180,1.0,6.0,53,0.00,,OVC033,0.00,VWS V14.01,2013-04-29 01:10:00,
2013-04-28 21:20:00,52.0,36.3,30.34,South,180,1.0,6.0,55,0.00,,OVC033,0.00,VWS V14.01,2013-04-29 01:20:00,
2013-04-28 21:30:00,51.6,36.9,30.35,South,180,0.0,2.0,57,0.00,,OVC033,0.00,VWS V14.01,2013-04-29 01:30:00,
2013-04-28 21:40:00,51.2,37.0,30.35,SSW,202,0.0,5.0,58,0.00,,OVC033,0.00,VWS V14.01,2013-04-29 01:40:00,
2013-04-28 21:50:00,50.7,37.3,30.35,SSW,202,0.0,1.0,60,0.00,,OVC033,0.00,VWS V14.01,2013-04-29 01:50:00,
2013-04-28 22:00:00,50.3,37.4,30.35,SSW,202,0.0,2.0,61,0.00,,OVC033,0.00,VWS V14.01,2013-04-29 02:00:00,
2013-04-28 22:10:00,49.9,38.6,30.35,SSW,202,0.0,3.0,65,0.00,,OVC033,0.00,VWS V14.01,2013-04-29 02:10:00,
2013-04-28 22:20:00,49.6,39.1,30.35,SSW,202,0.0,3.0,67,0.00,,OVC033,0.00,VWS V14.01,2013-04-29 02:20:00,
2013-04-28 22:30:00,49.4,40.4,30.35,SSW,202,0.0,1.0,71,0.00,,OVC033,0.00,VWS V14.01,2013-04-29 02:30:00,
2013-04-28 22:40:00,49.2,41.6,30.36,SSW,202,0.0,1.0,75,0.00,,OVC033,0.00,VWS V14.01,2013-04-29 02:40:00,
2013-04-28 22:50:00,49.0,41.8,30.36,SSW,202,0.0,1.0,76,0.00,,OVC033,0.00,VWS V14.01,2013-04-29 02:50:00,
2013-04-28 23:00:00,49.1,43.2,30.36,SSW,202,0.0,2.0,80,0.00,,OVC033,0.00,VWS V14.01,2013-04-29 03:00:00,
2013-04-28 23:10:00,49.1,43.5,30.35,SSW,202,0.0,3.0,81,0.00,,OVC033,0.00,VWS V14.01,2013-04-29 03:10:00,
2013-04-28 23:20:00,48.9,43.3,30.36,SSW,202,0.0,1.0,81,0.00,,OVC033,0.00,VWS V14.01,2013-04-29 03:20:00,
2013-04-28 23:30:00,48.7,43.8,30.36,SSW,202,0.0,3.0,83,0.00,,OVC033,0.00,VWS V14.01,2013-04-29 03:30:00,
2013-04-28 23:40:00,48.7,44.1,30.36,SSW,202,0.0,3.0,84,0.00,,OVC033,0.00,VWS V14.01,2013-04-29 03:40:00,
2013-04-28 23:50:00,48.8,44.2,30.36,South,180,0.0,5.0,84,0.00,,OVC033,0.00,VWS V14.01,2013-04-29 03:50:00,